Location: Squirrel Cove
(50.1074°N, 124.9139°W)
Time: 13:31:04
(UTC-07:00)

PCSat - Pass Details

Date: 21 May 2022
Orbit: 784 x 795 km, 67.1° (Epoch: 26 June)

Event Time Altitude Azimuth Distance (km) Brightness Sun altitude
Rises 22:58:07 0° 294° (WNW) 3,297 13.8 -13.2°
Reaches altitude 10° 23:01:50 10° 319° (NW) 2,371 13.5 -13.5°
Maximum altitude 23:04:36 14° 350° (N) 2,107 12.8 -13.7°
Drops below altitude 10° 23:07:23 10° 21° (NNE) 2,374 12.6 -14.0°
Sets 23:11:07 0° 47° (NE) 3,305 13.0 -14.3°
